Find Starlink 35404

NORAD ID: 66336 Int'l Des: 2025-253 Owner: SPXS Country: US Constellation: starlink operational
LEOCIRCULAR

リアルタイム位置

3D地球を読み込み中...

Starlink 35404について

説明を読み込み中...

次回通過

Passes for default location (London). Set your location on the main map for personalized predictions.

高度履歴

Loading altitude history...

軌道要素

1 66336U 25253T 26106.40593178 .00007943 00000-0 29770-3 0 9994
2 66336 43.0030 359.4192 0000992 271.8267 88.2471 15.27598026 26016
Epoch: Apr 16, 2026 • Age: 25 hours

現在のステータス

高度 490.6 km
速度 7.62 km/s
衛星直下点 -30.13°S, 147.73°W
打ち上げ日 Nov 6, 2025
運用期間 0.4 years
タイプ internet

技術仕様

分類 Payload
質量 575.00 kg
乾燥質量 530.00 kg
総質量 575.00 kg
長さ 0.30 m
直径 4.10 m
スパン 29.00 m
形状 Box + pan
製造者 SPXS
バスタイプ Starlink V2MO
フェーズステータス In Orbit
所有者/国 SPXS/US

Most Searched